FW8536 Weather Reports


time (UTC)temp
C
wind
direction
speed
KPH
gust
KPH
rain 1hr
cm
rain 24hr
cm
rain mn
cm
humidity
%
barometer
mb
20260502180510 19 332 19.3 38.6 0.00 0.00 0.00 35 1001.0
20260502170514 19 334 29.0 40.2 0.00 0.00 0.00 35 1001.1
20260502164006 18 5 22.5 37.0 0.00 0.00 0.00 38 1000.8
20260502163606 18 331 25.7 38.6 0.00 0.00 0.00 38 1000.8
20260502163007 18 332 22.5 38.6 0.00 0.00 0.00 38 1000.8
20260502162508 18 344 27.4 38.6 0.00 0.00 0.00 37 1000.8
20260502162007 18 9 24.1 37.0 0.00 0.00 0.00 37 1000.8
20260502161506 18 355 20.9 35.4 0.00 0.00 0.00 37 1000.7
20260502161006 18 329 22.5 33.8 0.00 0.00 0.00 37 1000.7
20260502160510 19 346 20.9 32.2 0.00 0.00 0.00 36 1000.6
20260502152004 17 345 17.7 25.7 0.00 0.00 0.00 40 1000.7
20260502151505 17 346 20.9 30.6 0.00 0.00 0.00 40 1000.7
20260502151004 17 342 17.7 30.6 0.00 0.00 0.00 38 1000.7
20260502150504 17 350 17.7 24.1 0.00 0.00 0.00 40 1000.6
20260502130606 12 360 24.1 32.2 0.00 0.00 0.00 48 1000.3
20260502123557 9 360 14.5 19.3 0.00 0.00 0.00 52 1000.2
20260502122604 9 360 12.9 20.9 0.00 0.00 0.00 52 1000.2
20260502122058 9 360 16.1 22.5 0.00 0.00 0.00 52 1000.2
20260502121559 9 360 17.7 22.5 0.00 0.00 0.00 52 999.9
20260502121101 8 360 14.5 20.9 0.00 0.00 0.00 53 999.9
20260502120557 8 360 17.7 20.9 0.00 0.00 0.00 53 999.7
20260502115556 8 360 16.1 20.9 0.00 0.00 0.00 52 1000.0
20260502115056 8 360 16.1 19.3 0.00 0.00 0.00 52 1000.2
20260502114558 8 360 14.5 19.3 0.00 0.00 0.00 52 1000.3
20260502114057 8 360 14.5 19.3 0.00 0.00 0.00 51 1000.3
20260502113556 8 360 14.5 17.7 0.00 0.00 0.00 51 1000.3
20260502112555 8 360 14.5 17.7 0.00 0.00 0.00 52 1000.5
20260502112055 8 360 9.7 17.7 0.00 0.00 0.00 51 1000.5
20260502111601 8 360 8.0 17.7 0.00 0.00 0.00 51 1000.4
20260502111055 8 360 11.3 17.7 0.00 0.00 0.00 51 1000.3
20260502110557 7 360 12.9 17.7 0.00 0.00 0.00 53 1000.4
20260502110055 6 360 11.3 14.5 0.00 0.00 0.00 53 1000.5
20260502105555 7 360 11.3 22.5 0.00 0.00 0.00 52 1000.1
20260502105055 7 360 12.9 25.7 0.00 0.00 0.00 51 1000.1
20260502104607 7 360 19.3 25.7 0.00 0.00 0.00 51 1000.0
20260502104054 7 360 16.1 20.9 0.00 0.00 0.00 52 1000.1
20260502103554 7 360 17.7 22.5 0.00 0.00 0.00 52 1000.1
20260502102557 7 360 14.5 19.3 0.00 0.00 0.00 54 1000.0
20260502102053 6 360 16.1 19.3 0.00 0.00 0.00 55 1000.2
20260502101607 6 360 16.1 20.9 0.00 0.00 0.00 55 1000.1
20260502101052 6 360 16.1 20.9 0.00 0.00 0.00 54 1000.1
20260502100552 6 360 16.1 20.9 0.00 0.00 0.00 55 1000.1
20260502091047 7 360 17.7 25.7 0.00 0.00 0.00 52 1000.6
20260502090546 7 360 17.7 24.1 0.00 0.00 0.00 52 1000.5
20260502071533 8 360 16.1 22.5 0.00 0.00 0.00 44 1001.7
20260502071032 8 360 17.7 22.5 0.00 0.00 0.00 44 1001.7
20260502070532 8 360 16.1 20.9 0.00 0.00 0.00 44 1001.6
20260502070052 8 360 14.5 20.9 0.00 0.00 0.00 45 1001.7
20260502065531 8 360 16.1 20.9 0.00 0.00 0.00 45 1001.8
20260502065033 8 360 16.1 22.5 0.00 0.00 0.00 44 1001.7
20260502064530 8 360 17.7 22.5 0.00 0.00 0.00 44 1001.7
20260502064030 8 360 17.7 22.5 0.00 0.00 0.00 44 1001.7
20260502063529 8 360 17.7 22.5 0.00 0.00 0.00 43 1001.8
20260502062533 8 360 17.7 22.5 0.00 0.00 0.00 43 1002.0
20260502062028 8 360 16.1 20.9 0.00 0.00 0.00 43 1002.0
20260502061527 8 360 17.7 20.9 0.00 0.00 0.00 43 1002.0
20260502061027 8 360 17.7 22.5 0.00 0.00 0.00 42 1002.3
20260502060527 9 360 17.7 22.5 0.00 0.00 0.00 41 1002.1
20260502060036 9 360 17.7 22.5 0.00 0.00 0.00 41 1002.1
20260502055526 9 360 17.7 22.5 0.00 0.00 0.00 41 1002.3
20260502055026 9 360 17.7 22.5 0.00 0.00 0.00 40 1002.3
20260502054538 9 360 16.1 24.1 0.00 0.00 0.00 40 1002.3
20260502054025 9 360 17.7 24.1 0.00 0.00 0.00 40 1002.4
20260502053525 9 360 17.7 24.1 0.00 0.00 0.00 40 1002.5
20260502052526 9 360 17.7 24.1 0.00 0.00 0.00 40 1002.4
20260502052028 8 360 17.7 22.5 0.00 0.00 0.00 40 1002.4
20260502051522 8 360 14.5 19.3 0.00 0.00 0.00 41 1002.6
20260502051024 8 360 12.9 16.1 0.00 0.00 0.00 41 1002.7
20260502050522 8 360 11.3 16.1 0.00 0.00 0.00 40 1002.5
20260502050022 8 360 12.9 16.1 0.00 0.00 0.00 40 1002.8
20260502045522 8 360 12.9 16.1 0.00 0.00 0.00 39 1002.8
20260502045021 8 360 12.9 16.1 0.00 0.00 0.00 40 1002.7
20260502044521 8 360 11.3 12.9 0.00 0.00 0.00 40 1002.8
20260502044019 8 360 9.7 12.9 0.00 0.00 0.00 41 1003.0
20260502043518 8 360 9.7 14.5 0.00 0.00 0.00 40 1003.1
20260502042518 8 360 11.3 14.5 0.00 0.00 0.00 40 1003.2
20260502042017 8 360 11.3 14.5 0.00 0.00 0.00 39 1003.2
20260502041528 8 360 11.3 16.1 0.00 0.00 0.00 38 1003.3
20260502041014 9 360 12.9 16.1 0.00 0.00 0.00 38 1003.4
20260502040513 8 360 11.3 14.5 0.00 0.00 0.00 38 1003.3
20260502040028 9 360 9.7 12.9 0.00 0.00 0.00 38 1003.4
20260502035511 9 360 9.7 16.1 0.00 0.00 0.00 37 1003.4
20260502035011 10 360 11.3 16.1 0.00 0.00 0.00 36 1003.4
20260502034509 10 360 11.3 17.7 0.00 0.00 0.00 36 1003.4
20260502034009 10 360 12.9 17.7 0.00 0.00 0.00 35 1003.5
20260502033510 10 360 12.9 16.1 0.00 0.00 0.00 35 1003.4
20260502032506 10 360 12.9 16.1 0.00 0.00 0.00 35 1003.4
20260502032006 10 360 12.9 16.1 0.00 0.00 0.00 35 1003.5
20260502031506 10 360 12.9 16.1 0.00 0.00 0.00 35 1003.4
20260502031005 10 360 12.9 17.7 0.00 0.00 0.00 35 1003.6
20260502030504 10 360 12.9 17.7 0.00 0.00 0.00 34 1003.5
20260502030003 10 360 12.9 16.1 0.00 0.00 0.00 34 1003.5
20260502025501 11 360 11.3 16.1 0.00 0.00 0.00 34 1003.5
20260502025004 11 360 11.3 14.5 0.00 0.00 0.00 34 1003.8
20260502024501 11 360 11.3 14.5 0.00 0.00 0.00 34 1003.6
20260502024100 11 360 11.3 16.1 0.00 0.00 0.00 33 1003.5
20260502023558 11 360 11.3 14.5 0.00 0.00 0.00 33 1003.4
20260502022559 12 360 11.3 14.5 0.00 0.00 0.00 31 1003.5
20260502022056 13 360 9.7 16.1 0.00 0.00 0.00 30 1003.5
20260502021555 13 360 12.9 16.1 0.00 0.00 0.00 30 1003.4
20260502021055 13 360 11.3 16.1 0.00 0.00 0.00 30 1003.5
20260502020553 13 360 11.3 16.1 0.00 0.00 0.00 30 1003.5
20260502020052 13 360 12.9 16.1 0.00 0.00 0.00 30 1003.5
20260502015554 14 360 11.3 16.1 0.00 0.00 0.00 29 1003.5
20260502015049 14 200 12.9 16.1 0.00 0.00 0.00 29 1003.6
20260502014555 15 196 11.3 14.5 0.00 0.00 0.00 29 1003.5
20260502014046 15 194 11.3 16.1 0.00 0.00 0.00 28 1003.5
20260502013544 16 196 9.7 16.1 0.00 0.00 0.00 28 1003.5
20260502012543 17 200 9.7 16.1 0.00 0.00 0.00 26 1003.6
20260502012042 17 205 12.9 22.5 0.00 0.00 0.00 24 1003.8
20260502011600 17 207 12.9 20.9 0.00 0.00 0.00 24 1003.7
20260502011039 17 210 16.1 20.9 0.00 0.00 0.00 24 1003.9
20260502010541 18 201 12.9 19.3 0.00 0.00 0.00 23 1003.9
20260502010140 18 201 11.3 20.9 0.00 0.00 0.00 24 1003.9
20260502005538 18 360 12.9 20.9 0.00 0.00 0.00 23 1003.9
20260502005039 18 205 12.9 22.5 0.00 0.00 0.00 23 1003.8
20260502004539 18 202 14.5 22.5 0.00 0.00 0.00 22 1003.9
20260502004037 18 360 11.3 20.9 0.00 0.00 0.00 24 1003.9
20260502003538 18 360 14.5 22.5 0.00 0.00 0.00 23 1003.9
20260502002537 18 180 14.5 22.5 0.00 0.00 0.00 23 1004.1
20260502002038 18 198 9.7 20.9 0.00 0.00 0.00 22 1004.0
20260502001541 18 182 14.5 20.9 0.00 0.00 0.00 23 1004.0
20260502001040 19 183 12.9 19.3 0.00 0.00 0.00 22 1004.0
20260502000535 19 220 9.7 20.9 0.00 0.00 0.00 23 1004.1
20260502000052 19 360 14.5 20.9 0.00 0.00 0.00 22 1004.0
20260501235534 18 203 14.5 20.9 0.00 0.00 0.00 22 1004.1
20260501235034 18 178 12.9 20.9 0.00 0.00 0.00 23 1004.1
20260501234534 18 160 11.3 22.5 0.00 0.00 0.00 23 1004.1
20260501234033 19 150 12.9 24.1 0.00 0.00 0.00 23 1004.1
20260501233532 18 184 19.3 25.7 0.00 0.00 0.00 23 1004.1
20260501232534 19 183 6.4 16.1 0.00 0.00 0.00 23 1004.2
20260501232033 19 217 4.8 22.5 0.00 0.00 0.00 22 1004.2
20260501231532 19 167 12.9 20.9 0.00 0.00 0.00 23 1004.3
20260501231032 18 184 11.3 20.9 0.00 0.00 0.00 22 1004.3
20260501230531 18 360 12.9 24.1 0.00 0.00 0.00 22 1004.3
20260501230104 18 155 12.9 24.1 0.00 0.00 0.00 23 1004.4
20260501225532 19 161 12.9 22.5 0.00 0.00 0.00 22 1004.4
20260501225030 18 219 8.0 17.7 0.00 0.00 0.00 23 1004.5
20260501224530 18 167 6.4 22.5 0.00 0.00 0.00 22 1004.6
20260501224027 18 360 12.9 30.6 0.00 0.00 0.00 23 1004.7
20260501223528 18 198 19.3 30.6 0.00 0.00 0.00 23 1004.7
20260501222530 18 152 17.7 29.0 0.00 0.00 0.00 23 1004.8
20260501222026 18 125 14.5 19.3 0.00 0.00 0.00 22 1004.7
20260501221526 18 59 6.4 19.3 0.00 0.00 0.00 22 1004.8
20260501221029 18 116 9.7 19.3 0.00 0.00 0.00 22 1004.9
20260501220525 18 121 9.7 17.7 0.00 0.00 0.00 22 1004.9
20260501220024 18 161 9.7 22.5 0.00 0.00 0.00 22 1004.9
20260501215526 18 178 16.1 22.5 0.00 0.00 0.00 23 1005.0
20260501215026 18 184 9.7 20.9 0.00 0.00 0.00 24 1005.1
20260501214523 18 106 9.7 24.1 0.00 0.00 0.00 23 1005.1
20260501214021 18 360 9.7 24.1 0.00 0.00 0.00 24 1005.2
20260501213521 18 133 20.9 32.2 0.00 0.00 0.00 24 1005.3
20260501212520 18 157 17.7 32.2 0.00 0.00 0.00 26 1005.2
20260501212019 18 215 0.0 24.1 0.00 0.00 0.00 25 1005.4
20260501211519 18 214 9.7 29.0 0.00 0.00 0.00 23 1005.5
20260501211017 18 168 12.9 25.7 0.00 0.00 0.00 26 1005.5
20260501210520 18 236 8.0 22.5 0.00 0.00 0.00 24 1005.4
20260501210015 17 184 11.3 22.5 0.00 0.00 0.00 25 1005.5
20260501205515 17 109 3.2 17.7 0.00 0.00 0.00 26 1005.5
20260501205016 17 126 12.9 20.9 0.00 0.00 0.00 25 1005.7
20260501204514 17 134 11.3 25.7 0.00 0.00 0.00 26 1005.8
20260501204014 17 157 12.9 29.0 0.00 0.00 0.00 26 1005.8
20260501203512 18 143 9.7 20.9 0.00 0.00 0.00 25 1005.8
20260501202511 18 360 4.8 14.5 0.00 0.00 0.00 24 1005.8
20260501202011 18 228 6.4 16.1 0.00 0.00 0.00 26 1005.9
20260501201509 17 101 3.2 25.7 0.00 0.00 0.00 28 1005.8
20260501201008 17 128 9.7 25.7 0.00 0.00 0.00 27 1005.9
20260501200508 17 100 12.9 20.9 0.00 0.00 0.00 26 1005.9
20260501200009 17 205 4.8 24.1 0.00 0.00 0.00 27 1005.8
20260501195509 17 227 11.3 24.1 0.00 0.00 0.00 28 1005.9
20260501195010 17 194 9.7 19.3 0.00 0.00 0.00 27 1006.0
20260501194506 17 214 9.7 19.3 0.00 0.00 0.00 27 1005.9
20260501194005 17 180 9.7 20.9 0.00 0.00 0.00 26 1005.9
20260501193506 17 187 12.9 24.1 0.00 0.00 0.00 28 1005.9
20260501192505 17 360 12.9 20.9 0.00 0.00 0.00 28 1006.0
20260501192005 17 92 14.5 20.9 0.00 0.00 0.00 27 1006.1
20260501191504 17 92 14.5 29.0 0.00 0.00 0.00 28 1006.1
20260501191004 16 95 17.7 29.0 0.00 0.00 0.00 28 1006.1
20260501190505 16 121 8.0 16.1 0.00 0.00 0.00 30 1006.2
20260501190007 16 244 8.0 25.7 0.00 0.00 0.00 28 1006.1
20260501185504 16 185 8.0 25.7 0.00 0.00 0.00 28 1006.1
20260501185003 16 132 4.8 25.7 0.00 0.00 0.00 29 1006.2
20260501184504 17 127 16.1 25.7 0.00 0.00 0.00 28 1006.3
20260501184003 17 144 12.9 20.9 0.00 0.00 0.00 29 1006.3
20260501183505 16 188 9.7 20.9 0.00 0.00 0.00 29 1006.3
20260501182502 16 115 11.3 20.9 0.00 0.00 0.00 30 1006.3
20260501182102 16 217 9.7 16.1 0.00 0.00 0.00 29 1006.3
20260501181600 16 350 4.8 16.1 0.00 0.00 0.00 29 1006.3
20260501181503 16 350 4.8 16.1 0.00 0.00 0.00 29 1006.3
20260501181100 16 163 9.7 22.5 0.00 0.00 0.00 29 1006.3
20260501181003 16 164 11.3 22.5 0.00 0.00 0.00 29 1006.4